Flag for U.S.A. Weather past 2 weeks in Arden-Arcade, California, U.S.A.

Now
63 °F

Clear.


Feels Like: 63 °F
Forecast: 58 / 80 °F
Wind: 6 mph from South

Location: Sacramento Executive Airport

Current Time: Sep 3, 2015 at 3:58:43 AM

Latest Report: Sep 3, 2015 at 2:53 AM


Visibility: 10 mi

Pressure: 29.84 "Hg

Humidity: 73%

Dew point: 54 °F

Location of Arden-ArcadeLocation

Historic Weather in Arden-Arcade — Graph

°F

Arden-Arcade temperature yesterday

Maximum temperature yesterday: 84 °F (at 3:53 PM)
Minimum temperature yesterday: 62 °F (at 6:53 AM)
Average temperature yesterday: 70 °F

Past Weeks' High & Low Weather Summary

 TemperatureHumidityPressure
High101 °F (Aug 27, 3:53 PM)90% (Aug 21, 6:53 AM)30.02 "Hg (Aug 21, 6:53 AM)
Low58 °F (Aug 22, 6:53 AM)15% (Aug 27, 3:53 PM)29.76 "Hg (Aug 20, 5:53 PM)
Average74 °F55%29.89 "Hg
* Reported Aug 19 1:53 AM — Sep 3 1:53 AM, Arden-Arcade, Weather by CustomWeather, © 2015

Note: Actual official high and low records may vary slightly from our data, if they occured in-between our weather recording intervals... More about our weather records

Advertising

Arden-Arcade weather history for previous 24 hours

 ConditionsComfort  
Time TempWeatherWind HumidityBarometerVisibility
1:53 AM
Thu, Sep 3
64 °FClear.7 mph73%29.84 "Hg10 mi
12:53 AM64 °FClear.7 mph73%29.85 "Hg10 mi
11:53 PM
Wed, Sep 2
65 °FClear.8 mph70%29.85 "Hg10 mi
10:53 PM65 °FClear.7 mph73%29.84 "Hg10 mi
9:53 PM67 °FClear.7 mph68%29.83 "Hg10 mi
8:53 PM68 °FClear.12 mph70%29.82 "Hg10 mi
7:53 PM71 °FSunny.14 mph57%29.81 "Hg10 mi
6:53 PM74 °FSunny.14 mph52%29.81 "Hg10 mi
5:53 PM78 °FSunny.16 mph45%29.81 "Hg10 mi
4:53 PM80 °FSunny.16 mph42%29.81 "Hg10 mi
3:53 PM84 °FSunny.12 mph33%29.83 "Hg9 mi
2:53 PM82 °FSunny.14 mph34%29.84 "Hg10 mi
1:53 PM81 °FSunny.15 mph34%29.86 "Hg10 mi
12:53 PM79 °FSunny.12 mph41%29.87 "Hg10 mi
11:53 AM76 °FSunny.14 mph47%29.89 "Hg10 mi
10:53 AM73 °FSunny.13 mph55%29.90 "Hg10 mi
9:53 AM70 °FSunny.10 mph64%29.90 "Hg10 mi
8:53 AM66 °FSunny.12 mph70%29.89 "Hg10 mi
7:53 AM64 °FSunny.10 mph75%29.89 "Hg10 mi
6:53 AM62 °FClear.8 mph78%29.88 "Hg10 mi
5:53 AM63 °FClear.7 mph75%29.87 "Hg10 mi
4:53 AM63 °FClear.9 mph78%29.86 "Hg10 mi
3:53 AM63 °FClear.9 mph78%29.85 "Hg10 mi
Weather by CustomWeather, © 2015

See weather overviewHow to use our weather pages